Location: Abundant Grace Fellowship
(35.0349°N, 90.0924°W)
Time: 09:35:34
(UTC+00:00)

Cosmos 1943 Rocket - Pass Details

Date: 18 January 2026
Orbit: 812 x 842 km, 71.0° (Epoch: 9 February)

Event Time Altitude Azimuth Distance (km) Brightness Sun altitude
Exits shadow 11:12:05 46° 324° (NW) 1,076 2.4 -23.3°
Drops below altitude 10° 11:16:35 10° 10° (N) 2,402 4.6 -22.4°
Sets 11:19:06 0° 16° (NNE) 3,338 5.4 -21.9°
